Regional Weather Roundup
Issued by NWS

Home | Current Version | Previous Version | Text Only | Print | Product List | Glossary On
Versions: 1 2 3 4 5 6 7 8 9 10 11 12 13 14 15 16 17 18 19 20 21 22 23 24 25 26 27 28 29 30 31 32 33 34 35 36 37 38 39 40 41 42 43 44 45 46 47 48 49 50
000
ASUS43 KOAX 131310
RWRNE

WEATHER ROUNDUP FOR NEBRASKA
NATIONAL WEATHER SERVICE OMAHA NE
800 AM CDT SUN JUL 13 2014

NOTES: SATELLITE DATA IS BEING USED TO AUGMENT CLOUD COVER ABOVE
       12000 FEET.
       "FAIR" INDICATES FEW OR NO CLOUDS BELOW 12,000 FEET WITH NO
       SIGNIFICANT WEATHER AND/OR OBSTRUCTIONS TO VISIBILITY.

  * THESE STATIONS DO NOT REPORT WEATHER SUCH AS RAIN...SNOW OR FOG.

NEZ001>004-019>022-054>056-131400-
NEBRASKA PANHANDLE

CITY           SKY/WX    TMP DP  RH WIND       PRES   REMARKS
SCOTTSBLUFF    MOSUNNY   64  62  93 N6        30.27R
ALLIANCE         N/A     62  60  93 CALM      30.25S
CHADRON        SUNNY     59  57  93 SW6       30.22R
KIMBALL        SUNNY     62  61  94 CALM      30.30S
SIDNEY         SUNNY     65  60  84 NW3       30.29R
$$

NEZ057>060-069>072-079>082-131400-
SOUTHWEST NEBRASKA

CITY           SKY/WX    TMP DP  RH WIND       PRES   REMARKS
NORTH PLATTE   CLOUDY    66  63  90 W5        30.20F
IMPERIAL       MOSUNNY   66  62  87 N5        30.22F
LEXINGTON      SUNNY     67  66  94 NW5       30.18S
MCCOOK         MOSUNNY   68  65  90 W3        30.19S
OGALLALA       PTSUNNY   61  60  97 CALM      30.22F
$$

NEZ005>010-023>029-035>040-094-131400-
NORTH CENTRAL NEBRASKA

CITY           SKY/WX    TMP DP  RH WIND       PRES   REMARKS
VALENTINE      SUNNY     67  64  90 W3        30.16S
AINSWORTH      SUNNY     67  64  92 W6        30.15S
BROKEN BOW     SUNNY     69  65  86 CALM      30.16F
O`NEILL        SUNNY     68  63  84 CALM      30.12F
ORD            SUNNY     67  64  90 CALM      30.12F
THEDFORD       SUNNY     66  64  96 W3        30.19F
$$

NEZ041-046>049-061>064-073>077-083>087-131400-
SOUTH CENTRAL NEBRASKA

CITY           SKY/WX    TMP DP  RH WIND       PRES   REMARKS
GRAND ISLAND   SUNNY     70  66  87 W7        30.14R
AURORA         SUNNY     69  69 100 CALM      30.12S FOG
HASTINGS       SUNNY     70  65  84 NW6       30.14R
HEBRON         MOSUNNY   72  68  88 N6        30.09S FOG
HOLDREGE       MOSUNNY   68  66  93 NW6       30.16S FOG
KEARNEY *      SUNNY     68  64  88 NW7       30.16R
YORK           SUNNY     68  68 100 NW5       30.12R
$$

NEZ011>018-030>034-042>045-131400-
NORTHEAST NEBRASKA

CITY           SKY/WX    TMP DP  RH WIND       PRES   REMARKS
NORFOLK        SUNNY     70  66  87 W8        30.09S
ALBION         SUNNY     68  63  84 CALM      30.12R
BLAIR          SUNNY     69  64  86 W7        30.06S
TEKAMAH        SUNNY     69  66  90 SW3       30.05S
WAYNE          SUNNY     69  68  95 CALM      30.09R
$$

NEZ050>053-065>068-078-088>093-131400-
SOUTHEAST NEBRASKA

CITY           SKY/WX    TMP DP  RH WIND       PRES   REMARKS
LINCOLN        SUNNY     72  66  81 W3        30.08S
OMAHA EPPLEY   MOSUNNY   72  66  81 CALM      30.06S
BEATRICE       MOSUNNY   68  67  96 N6        30.07S
FALLS CITY     PTSUNNY   71  69  93 N3        30.03R
NEBRASKA CITY  MOSUNNY   69  69 100 N3        30.07R
PLATTSMOUTH    SUNNY     69  67  93 NW3       30.06S
$$

NEZ044-045-051>053-067-131400-
OMAHA AREA

CITY           SKY/WX    TMP DP  RH WIND       PRES   REMARKS
OMAHA EPPLEY   MOSUNNY   72  66  81 CALM      30.06S
BLAIR          SUNNY     69  64  86 W7        30.06S
MILLARD        SUNNY     71  67  86 NW6       30.06S
OFFUTT AFB     SUNNY     71  71 100 W7        30.06R
PLATTSMOUTH    SUNNY     69  67  93 NW3       30.06S
WAHOO          FAIR      72  67  85 NW3       30.08R
$$


USA.gov is the U.S. government's official web portal to all federal, state and local government web resources and services.